TimeCST,TemperatureF,Dew PointF,Humidity,Sea Level PressureIn,VisibilityMPH,Wind Direction,Wind SpeedMPH,Gust SpeedMPH,PrecipitationIn,Events,Conditions,WindDirDegrees,DateUTC
12:15 AM,57.7,48.4,71,30.28,10.0,Calm,Calm,-,N/A,,Overcast,0,2012-11-16 06:15:00
12:35 AM,57.9,48.0,70,30.27,10.0,NNE,5.8,-,N/A,,Overcast,30,2012-11-16 06:35:00
12:55 AM,58.1,48.0,69,30.27,10.0,NE,3.5,-,N/A,,Overcast,40,2012-11-16 06:55:00
1:15 AM,58.1,48.2,70,30.28,10.0,NNE,3.5,-,N/A,,Overcast,30,2012-11-16 07:15:00
1:35 AM,57.7,48.4,71,30.28,10.0,North,3.5,-,N/A,,Overcast,10,2012-11-16 07:35:00
1:55 AM,56.3,48.2,74,30.27,10.0,NNE,4.6,-,N/A,,Overcast,20,2012-11-16 07:55:00
2:15 AM,55.4,48.2,77,30.27,10.0,NNE,5.8,-,N/A,,Overcast,20,2012-11-16 08:15:00
2:35 AM,55.8,47.5,74,30.27,10.0,NNE,5.8,-,N/A,,Mostly Cloudy,30,2012-11-16 08:35:00
2:55 AM,55.2,46.6,73,30.27,10.0,NNE,4.6,-,N/A,,Mostly Cloudy,30,2012-11-16 08:55:00
3:15 AM,53.6,44.6,72,30.27,10.0,NE,4.6,-,N/A,,Scattered Clouds,40,2012-11-16 09:15:00
3:35 AM,54.7,45.7,72,30.27,10.0,NNE,4.6,-,N/A,,Mostly Cloudy,30,2012-11-16 09:35:00
3:55 AM,55.4,44.4,67,30.27,10.0,NNE,4.6,-,N/A,,Mostly Cloudy,20,2012-11-16 09:55:00
4:15 AM,55.0,43.5,65,30.26,10.0,NE,6.9,-,N/A,,Overcast,40,2012-11-16 10:15:00
4:35 AM,55.2,43.0,63,30.26,10.0,NE,6.9,-,N/A,,Overcast,40,2012-11-16 10:35:00
4:55 AM,55.2,42.6,63,30.27,10.0,NNE,5.8,-,N/A,,Overcast,30,2012-11-16 10:55:00
5:15 AM,55.4,42.3,61,30.27,10.0,NNE,6.9,-,N/A,,Overcast,30,2012-11-16 11:15:00
5:35 AM,55.2,42.8,63,30.27,10.0,NNE,6.9,-,N/A,,Overcast,20,2012-11-16 11:35:00
5:55 AM,54.7,42.4,63,30.27,10.0,NNE,5.8,-,N/A,,Overcast,20,2012-11-16 11:55:00
6:15 AM,54.3,41.9,63,30.28,10.0,NNE,5.8,-,N/A,,Overcast,20,2012-11-16 12:15:00
6:35 AM,53.8,41.2,62,30.27,10.0,NE,9.2,-,N/A,,Overcast,40,2012-11-16 12:35:00
6:55 AM,52.3,40.5,64,30.29,10.0,NNE,6.9,-,N/A,,Scattered Clouds,30,2012-11-16 12:55:00
7:15 AM,51.8,40.8,66,30.31,10.0,Calm,Calm,-,N/A,,Mostly Cloudy,0,2012-11-16 13:15:00
7:35 AM,53.1,41.2,64,30.31,10.0,NE,4.6,-,N/A,,Overcast,40,2012-11-16 13:35:00
7:55 AM,53.4,41.5,64,30.31,10.0,NNE,8.1,-,N/A,,Overcast,30,2012-11-16 13:55:00
8:15 AM,53.8,42.1,65,30.31,10.0,NNE,11.5,-,N/A,,Overcast,30,2012-11-16 14:15:00
8:35 AM,54.7,42.6,64,30.31,10.0,NE,10.4,-,N/A,,Mostly Cloudy,40,2012-11-16 14:35:00
8:55 AM,56.8,43.0,60,30.32,10.0,NNE,9.2,-,N/A,,Mostly Cloudy,30,2012-11-16 14:55:00
9:15 AM,59.5,43.2,55,30.33,10.0,NNE,6.9,-,N/A,,Overcast,20,2012-11-16 15:15:00
9:35 AM,61.3,43.0,51,30.33,10.0,NE,10.4,-,N/A,,Overcast,50,2012-11-16 15:35:00
9:55 AM,62.1,41.4,47,30.34,10.0,NNE,11.5,-,N/A,,Mostly Cloudy,20,2012-11-16 15:55:00
10:15 AM,63.9,38.3,39,30.34,10.0,North,16.1,20.7,N/A,,Clear,10,2012-11-16 16:15:00
10:35 AM,64.6,37.8,37,30.34,10.0,NNE,8.1,16.1,N/A,,Clear,30,2012-11-16 16:35:00
10:55 AM,65.7,36.0,33,30.34,10.0,North,13.8,-,N/A,,Clear,10,2012-11-16 16:55:00
11:15 AM,66.6,35.2,31,30.33,10.0,North,11.5,17.3,N/A,,Clear,10,2012-11-16 17:15:00
11:35 AM,68.2,36.5,31,30.32,10.0,North,11.5,-,N/A,,Clear,10,2012-11-16 17:35:00
11:55 AM,68.5,35.2,29,30.31,10.0,NNE,12.7,18.4,N/A,,Clear,30,2012-11-16 17:55:00
12:15 PM,69.3,34.0,27,30.31,10.0,NNE,10.4,16.1,N/A,,Clear,20,2012-11-16 18:15:00
12:35 PM,70.2,33.4,26,30.29,10.0,North,12.7,16.1,N/A,,Clear,10,2012-11-16 18:35:00
12:55 PM,70.3,33.4,26,30.28,10.0,NE,8.1,-,N/A,,Clear,50,2012-11-16 18:55:00
1:15 PM,70.5,33.3,25,30.27,10.0,ENE,10.4,-,N/A,,Clear,60,2012-11-16 19:15:00
1:35 PM,71.4,32.7,24,30.27,10.0,NNE,8.1,17.3,N/A,,Clear,30,2012-11-16 19:35:00
1:55 PM,71.2,32.4,24,30.26,10.0,NNE,10.4,17.3,N/A,,Clear,30,2012-11-16 19:55:00
2:15 PM,71.4,32.0,23,30.26,10.0,NE,12.7,-,N/A,,Clear,40,2012-11-16 20:15:00
2:35 PM,72.0,32.0,23,30.25,10.0,NE,8.1,16.1,N/A,,Clear,40,2012-11-16 20:35:00
2:55 PM,71.6,32.0,23,30.25,10.0,North,10.4,-,N/A,,Clear,360,2012-11-16 20:55:00
3:15 PM,71.6,31.8,23,30.25,10.0,NE,8.1,-,N/A,,Clear,50,2012-11-16 21:15:00
3:35 PM,71.2,31.8,23,30.25,10.0,NE,9.2,-,N/A,,Clear,50,2012-11-16 21:35:00
3:55 PM,71.1,32.0,24,30.25,10.0,NE,6.9,-,N/A,,Clear,50,2012-11-16 21:55:00
4:15 PM,70.3,32.5,25,30.26,10.0,NNE,6.9,-,N/A,,Clear,30,2012-11-16 22:15:00
4:35 PM,69.4,33.1,26,30.26,10.0,NE,6.9,-,N/A,,Clear,40,2012-11-16 22:35:00
4:55 PM,68.0,32.5,27,30.26,10.0,NE,5.8,-,N/A,,Clear,40,2012-11-16 22:55:00
5:15 PM,65.3,33.4,31,30.27,10.0,NE,4.6,-,N/A,,Clear,40,2012-11-16 23:15:00
5:35 PM,61.7,33.4,35,30.27,10.0,NNE,3.5,-,N/A,,Clear,30,2012-11-16 23:35:00
5:55 PM,59.0,34.2,39,30.28,10.0,North,3.5,-,N/A,,Clear,10,2012-11-16 23:55:00
6:15 PM,56.7,34.9,44,30.28,10.0,North,4.6,-,N/A,,Clear,10,2012-11-17 00:15:00
6:35 PM,53.6,35.6,51,30.29,10.0,ESE,3.5,-,N/A,,Clear,110,2012-11-17 00:35:00
6:55 PM,52.2,37.0,56,30.29,10.0,ESE,3.5,-,N/A,,Clear,110,2012-11-17 00:55:00
7:15 PM,50.4,37.8,62,30.29,10.0,Calm,Calm,-,N/A,,Clear,0,2012-11-17 01:15:00
7:55 PM,48.4,39.0,70,30.30,10.0,Calm,Calm,-,N/A,,Clear,0,2012-11-17 01:55:00
8:15 PM,48.2,39.6,72,30.31,10.0,Calm,Calm,-,N/A,,Clear,0,2012-11-17 02:15:00
8:35 PM,47.5,38.3,70,30.32,10.0,Calm,Calm,-,N/A,,Clear,0,2012-11-17 02:35:00
8:55 PM,46.9,37.6,70,30.32,10.0,NW,5.8,-,N/A,,Clear,310,2012-11-17 02:55:00
9:15 PM,47.1,37.4,69,30.32,10.0,NNW,3.5,-,N/A,,Clear,340,2012-11-17 03:15:00
9:35 PM,44.6,37.4,76,30.32,10.0,Calm,Calm,-,N/A,,Clear,0,2012-11-17 03:35:00
9:55 PM,44.6,38.5,79,30.32,10.0,Calm,Calm,-,N/A,,Clear,0,2012-11-17 03:55:00
10:15 PM,44.8,38.3,78,30.33,10.0,Calm,Calm,-,N/A,,Clear,0,2012-11-17 04:15:00
10:35 PM,44.1,37.9,79,30.33,10.0,Calm,Calm,-,N/A,,Clear,0,2012-11-17 04:35:00
10:55 PM,44.2,38.3,80,30.33,10.0,Calm,Calm,-,N/A,,Clear,0,2012-11-17 04:55:00
11:15 PM,44.8,38.3,78,30.34,10.0,WNW,3.5,-,N/A,,Clear,300,2012-11-17 05:15:00
11:35 PM,43.7,37.9,80,30.33,10.0,NW,4.6,-,N/A,,Clear,320,2012-11-17 05:35:00
11:55 PM,43.3,37.6,80,30.33,10.0,Calm,Calm,-,N/A,,Clear,0,2012-11-17 05:55:00